• în România
  • Lista ţărilor
  • Pe 7 zile
  • Temperatura apei
  • Hartă satelitară
  • Meteo pe hartă
  • Widget-uri
  • user-avatar
    Intrare

    Meteo pe oră la Vyalimyaki

    Astăzi, 17 August, Vineri

    Timp Temperatura Precipitaţii Vânt Presiune Umiditate
    00:00 +15°C° 0 mm 2 m/s 758 mmHg 83%
    01:00 +15°C° 0 mm 2 m/s 758 mmHg 85%
    02:00 +15°C° 0 mm 2 m/s 758 mmHg 88%
    03:00 +15°C° 0 mm 2 m/s 758 mmHg 89%
    04:00 +15°C° 0 mm 2 m/s 758 mmHg 89%
    05:00 +15°C° 0 mm 2 m/s 758 mmHg 89%
    06:00 +17°C° 0 mm 3 m/s 758 mmHg 83%
    07:00 +18°C° 0 mm 3 m/s 758 mmHg 76%
    08:00 +20°C° 0 mm 3 m/s 758 mmHg 67%
    09:00 +21°C° 0 mm 4 m/s 758 mmHg 63%
    10:00 +22°C° 0 mm 4 m/s 758 mmHg 59%
    11:00 +23°C° 0 mm 4 m/s 758 mmHg 54%
    12:00 +25°C° 0 mm 4 m/s 758 mmHg 53%
    13:00 +25°C° 0 mm 5 m/s 758 mmHg 52%
    14:00 +25°C° 0 mm 5 m/s 757 mmHg 50%
    15:00 +25°C° 0 mm 5 m/s 757 mmHg 51%
    16:00 +25°C° 0 mm 5 m/s 757 mmHg 52%
    17:00 +23°C° 0 mm 5 m/s 756 mmHg 53%
    18:00 +22°C° 0 mm 4 m/s 756 mmHg 59%
    19:00 +20°C° 0 mm 4 m/s 756 mmHg 64%
    20:00 +19°C° 0 mm 3 m/s 756 mmHg 70%
    21:00 +18°C° 0 mm 3 m/s 756 mmHg 73%
    22:00 +18°C° 0 mm 3 m/s 756 mmHg 76%
    23:00 +17°C° 0 mm 3 m/s 756 mmHg 78%

    Mâine, 18 August, Sâmbătă

    Timp Temperatura Precipitaţii Vânt Presiune Umiditate
    00:00 +17°C° 0 mm 3 m/s 756 mmHg 80%
    01:00 +17°C° 0 mm 3 m/s 756 mmHg 82%
    02:00 +17°C° 0 mm 3 m/s 756 mmHg 83%
    03:00 +17°C° 0 mm 4 m/s 756 mmHg 86%
    04:00 +17°C° 0 mm 4 m/s 756 mmHg 88%
    05:00 +17°C° 0 mm 4 m/s 755 mmHg 90%
    06:00 +18°C° 0 mm 4 m/s 755 mmHg 86%
    07:00 +19°C° 0 mm 4 m/s 755 mmHg 81%
    08:00 +20°C° 0 mm 4 m/s 755 mmHg 77%
    09:00 +22°C° 0,1 mm 4 m/s 755 mmHg 71%
    10:00 +23°C° 0,1 mm 5 m/s 755 mmHg 65%
    11:00 +25°C° 0,1 mm 5 m/s 755 mmHg 59%
    12:00 +25°C° 0,2 mm 5 m/s 754 mmHg 58%
    13:00 +25°C° 0,2 mm 5 m/s 754 mmHg 58%
    14:00 +26°C° 0,2 mm 5 m/s 754 mmHg 57%
    15:00 +26°C° 0 mm 5 m/s 753 mmHg 56%
    16:00 +26°C° 0 mm 5 m/s 753 mmHg 55%
    17:00 +25°C° 0 mm 5 m/s 753 mmHg 55%
    18:00 +23°C° 0 mm 5 m/s 753 mmHg 60%
    19:00 +22°C° 0 mm 4 m/s 752 mmHg 66%
    20:00 +21°C° 0 mm 4 m/s 752 mmHg 72%
    21:00 +20°C° 0,1 mm 4 m/s 752 mmHg 75%
    22:00 +20°C° 0,1 mm 4 m/s 752 mmHg 79%
    23:00 +19°C° 0,1 mm 4 m/s 751 mmHg 83%

    Poimâine, 19 August, Duminică

    Timp Temperatura Precipitaţii Vânt Presiune Umiditate
    00:00 +19°C° 0 mm 4 m/s 751 mmHg 84%
    01:00 +19°C° 0 mm 4 m/s 751 mmHg 86%
    02:00 +18°C° 0 mm 4 m/s 751 mmHg 88%
    03:00 +17°C° 0 mm 5 m/s 751 mmHg 85%
    04:00 +16°C° 0 mm 5 m/s 750 mmHg 83%
    05:00 +15°C° 0 mm 5 m/s 750 mmHg 80%
    06:00 +16°C° 0,1 mm 5 m/s 750 mmHg 79%
    07:00 +16°C° 0,1 mm 5 m/s 750 mmHg 78%
    08:00 +17°C° 0,1 mm 5 m/s 750 mmHg 77%
    09:00 +17°C° 1 mm 5 m/s 750 mmHg 82%
    10:00 +16°C° 1 mm 5 m/s 749 mmHg 87%
    11:00 +16°C° 1 mm 5 m/s 749 mmHg 92%
    12:00 +16°C° 1,6 mm 5 m/s 749 mmHg 91%
    13:00 +17°C° 1,6 mm 4 m/s 749 mmHg 90%
    14:00 +17°C° 1,6 mm 4 m/s 749 mmHg 89%
    15:00 +17°C° 0,2 mm 4 m/s 749 mmHg 84%
    16:00 +18°C° 0,2 mm 4 m/s 748 mmHg 79%
    17:00 +19°C° 0,2 mm 4 m/s 748 mmHg 75%
    18:00 +18°C° 0 mm 4 m/s 749 mmHg 78%
    19:00 +17°C° 0 mm 3 m/s 749 mmHg 81%
    20:00 +16°C° 0 mm 3 m/s 749 mmHg 85%
    21:00 +16°C° 0 mm 3 m/s 749 mmHg 84%
    22:00 +14°C° 0 mm 3 m/s 749 mmHg 84%
    23:00 +14°C° 0 mm 3 m/s 750 mmHg 84%

    20 August, Luni

    Timp Temperatura Precipitaţii Vânt Presiune Umiditate
    00:00 +13°C° 0 mm 3 m/s 750 mmHg 82%
    01:00 +13°C° 0 mm 3 m/s 750 mmHg 81%
    02:00 +12°C° 0 mm 3 m/s 750 mmHg 79%
    03:00 +13°C° 0 mm 2 m/s 750 mmHg 78%
    04:00 +13°C° 0 mm 2 m/s 750 mmHg 78%
    05:00 +12°C° 0 mm 2 m/s 750 mmHg 77%
    06:00 +14°C° 0 mm 2 m/s 750 mmHg 71%
    07:00 +15°C° 0 mm 2 m/s 750 mmHg 64%
    08:00 +17°C° 0 mm 2 m/s 750 mmHg 58%
    09:00 +18°C° 0 mm 3 m/s 750 mmHg 53%
    10:00 +19°C° 0 mm 3 m/s 750 mmHg 49%
    11:00 +20°C° 0 mm 4 m/s 750 mmHg 44%
    12:00 +20°C° 0 mm 4 m/s 750 mmHg 43%
    13:00 +21°C° 0 mm 4 m/s 750 mmHg 43%
    14:00 +21°C° 0 mm 4 m/s 750 mmHg 42%
    15:00 +21°C° 0 mm 4 m/s 750 mmHg 42%
    16:00 +21°C° 0 mm 4 m/s 750 mmHg 43%
    17:00 +20°C° 0 mm 3 m/s 750 mmHg 43%
    18:00 +19°C° 0 mm 3 m/s 750 mmHg 50%
    19:00 +17°C° 0 mm 3 m/s 750 mmHg 57%
    20:00 +16°C° 0 mm 2 m/s 750 mmHg 63%
    21:00 +15°C° 0 mm 2 m/s 751 mmHg 66%
    22:00 +15°C° 0 mm 2 m/s 751 mmHg 69%
    23:00 +14°C° 0 mm 2 m/s 751 mmHg 71%

    21 August, Marţi

    Timp Temperatura Precipitaţii Vânt Presiune Umiditate
    00:00 +14°C° 0 mm 2 m/s 751 mmHg 72%
    01:00 +14°C° 0 mm 2 m/s 751 mmHg 72%
    02:00 +13°C° 0 mm 2 m/s 751 mmHg 72%
    03:00 +13°C° 0 mm 2 m/s 751 mmHg 73%
    04:00 +13°C° 0 mm 2 m/s 751 mmHg 74%
    05:00 +12°C° 0 mm 2 m/s 751 mmHg 76%
    06:00 +14°C° 0 mm 2 m/s 751 mmHg 69%
    07:00 +15°C° 0 mm 2 m/s 751 mmHg 63%
    08:00 +17°C° 0 mm 2 m/s 751 mmHg 56%
    09:00 +18°C° 0 mm 2 m/s 751 mmHg 52%
    10:00 +19°C° 0 mm 2 m/s 751 mmHg 47%
    11:00 +20°C° 0 mm 2 m/s 751 mmHg 43%
    12:00 +20°C° 0 mm 2 m/s 751 mmHg 42%
    13:00 +20°C° 0 mm 2 m/s 751 mmHg 41%
    14:00 +20°C° 0 mm 2 m/s 751 mmHg 40%
    15:00 +20°C° 0 mm 2 m/s 750 mmHg 42%
    16:00 +19°C° 0 mm 2 m/s 750 mmHg 44%
    17:00 +20°C° 0 mm 1 m/s 750 mmHg 46%
    18:00 +19°C° 0 mm 1 m/s 750 mmHg 50%
    19:00 +16°C° 0 mm 1 m/s 750 mmHg 54%
    20:00 +15°C° 0 mm 1 m/s 750 mmHg 57%
    21:00 +15°C° 0,1 mm 1 m/s 750 mmHg 60%
    22:00 +14°C° 0,1 mm 2 m/s 750 mmHg 62%
    23:00 +13°C° 0,1 mm 2 m/s 750 mmHg 65%

    22 August, Miercuri

    Timp Temperatura Precipitaţii Vânt Presiune Umiditate
    00:00 +13°C° 0 mm 2 m/s 750 mmHg 67%
    01:00 +12°C° 0 mm 2 m/s 750 mmHg 70%
    02:00 +12°C° 0 mm 2 m/s 750 mmHg 72%
    03:00 +12°C° 0 mm 1 m/s 750 mmHg 74%
    04:00 +11°C° 0 mm 1 m/s 751 mmHg 75%
    05:00 +11°C° 0 mm 1 m/s 751 mmHg 77%
    06:00 +13°C° 0 mm 1 m/s 751 mmHg 69%
    07:00 +15°C° 0 mm 1 m/s 751 mmHg 61%
    08:00 +16°C° 0 mm 0 m/s 751 mmHg 53%
    09:00 +19°C° 0 mm 1 m/s 751 mmHg 50%
    10:00 +20°C° 0 mm 1 m/s 751 mmHg 46%
    11:00 +21°C° 0 mm 1 m/s 751 mmHg 42%
    12:00 +20°C° 0 mm 2 m/s 751 mmHg 42%
    13:00 +20°C° 0 mm 2 m/s 750 mmHg 42%
    14:00 +20°C° 0 mm 2 m/s 750 mmHg 41%
    15:00 +19°C° 0,1 mm 3 m/s 750 mmHg 48%
    16:00 +18°C° 0,1 mm 3 m/s 749 mmHg 55%
    17:00 +17°C° 0,1 mm 3 m/s 748 mmHg 62%
    18:00 +15°C° 1,2 mm 4 m/s 748 mmHg 70%
    19:00 +14°C° 1,2 mm 5 m/s 747 mmHg 79%
    20:00 +13°C° 1,2 mm 6 m/s 746 mmHg 88%
    21:00 +14°C° 3,9 mm 6 m/s 745 mmHg 90%
    22:00 +14°C° 3,9 mm 6 m/s 744 mmHg 92%
    23:00 +14°C° 3,9 mm 6 m/s 743 mmHg 94%
    Arată mai mult